| time (UTC) | temp F | wind direction | speed MPH | gust MPH | rain 1hr in | rain 24hr in | rain mn in | humidity % | barometer mb |
| 20260507054033 | 65 | 75 | 2.0 | 7.0 | 0.00 | 0.00 | 0.00 | 29 | 1014.3 |
| 20260507053033 | 65 | 70 | 4.0 | 9.0 | 0.00 | 0.00 | 0.00 | 29 | 1014.6 |
| 20260507052033 | 65 | 88 | 1.0 | 4.0 | 0.00 | 0.00 | 0.00 | 29 | 1014.6 |
| 20260507051033 | 65 | 68 | 2.0 | 9.0 | 0.00 | 0.00 | 0.00 | 29 | 1014.6 |
| 20260507050033 | 65 | 68 | 0.0 | 3.0 | 0.00 | 0.00 | 0.00 | 28 | 1014.4 |
| 20260507045033 | 65 | 62 | 1.0 | 3.0 | 0.00 | 0.00 | 0.00 | 28 | 1014.4 |
| 20260507044031 | 65 | 65 | 1.0 | 4.0 | 0.00 | 0.00 | 0.00 | 29 | 1014.4 |
| 20260507043033 | 65 | 71 | 0.0 | 3.0 | 0.00 | 0.00 | 0.00 | 29 | 1014.6 |
| 20260507042033 | 66 | 63 | 0.0 | 1.0 | 0.00 | 0.00 | 0.00 | 29 | 1014.6 |
| 20260507041033 | 66 | 56 | 0.0 | 1.0 | 0.00 | 0.00 | 0.00 | 29 | 1014.3 |
| 20260507040033 | 66 | 0 | 0.0 | 0.0 | 0.00 | 0.00 | 0.00 | 28 | 1014.2 |
| 20260507035033 | 67 | 0 | 0.0 | 0.0 | 0.00 | 0.00 | 0.00 | 27 | 1014.2 |
| 20260507034033 | 67 | 44 | 0.0 | 3.0 | 0.00 | 0.00 | 0.00 | 27 | 1014.0 |
| 20260507033031 | 68 | 0 | 0.0 | 0.0 | 0.00 | 0.00 | 0.00 | 26 | 1013.9 |
| 20260507032033 | 68 | 0 | 0.0 | 0.0 | 0.00 | 0.00 | 0.00 | 25 | 1013.9 |
| 20260507031033 | 69 | 307 | 0.0 | 1.0 | 0.00 | 0.00 | 0.00 | 24 | 1013.5 |
| 20260507030033 | 70 | 0 | 0.0 | 0.0 | 0.00 | 0.00 | 0.00 | 23 | 1013.4 |
| 20260507025033 | 71 | 0 | 0.0 | 0.0 | 0.00 | 0.00 | 0.00 | 22 | 1013.4 |
| 20260507024033 | 71 | 0 | 0.0 | 0.0 | 0.00 | 0.00 | 0.00 | 21 | 1013.1 |
| 20260507023033 | 72 | 0 | 0.0 | 0.0 | 0.00 | 0.00 | 0.00 | 20 | 1013.1 |
| 20260507022105 | 73 | 307 | 4.0 | 10.0 | 0.00 | 0.00 | 0.00 | 20 | 1013.1 |
| 20260507021033 | 73 | 302 | 0.0 | 4.0 | 0.00 | 0.00 | 0.00 | 19 | 1013.0 |
| 20260507020033 | 74 | 299 | 4.0 | 9.0 | 0.00 | 0.00 | 0.00 | 19 | 1013.0 |
| 20260507015033 | 74 | 319 | 4.0 | 9.0 | 0.00 | 0.00 | 0.00 | 19 | 1013.0 |
| 20260507014033 | 75 | 305 | 3.0 | 7.0 | 0.00 | 0.00 | 0.00 | 19 | 1012.8 |
| 20260507013050 | 76 | 307 | 5.0 | 9.0 | 0.00 | 0.00 | 0.00 | 18 | 1013.5 |
| 20260507012031 | 76 | 292 | 5.0 | 12.0 | 0.00 | 0.00 | 0.00 | 18 | 1013.5 |
| 20260507010033 | 77 | 302 | 5.0 | 13.0 | 0.00 | 0.00 | 0.00 | 19 | 1013.3 |
| 20260507005050 | 77 | 307 | 6.0 | 13.0 | 0.00 | 0.00 | 0.00 | 19 | 1013.3 |
| 20260507004033 | 77 | 304 | 7.0 | 12.0 | 0.00 | 0.00 | 0.00 | 19 | 1013.1 |
| 20260507003050 | 77 | 296 | 8.0 | 12.0 | 0.00 | 0.00 | 0.00 | 19 | 1013.0 |
| 20260507002050 | 77 | 297 | 8.0 | 13.0 | 0.00 | 0.00 | 0.00 | 19 | 1013.0 |
| 20260507001048 | 78 | 288 | 5.0 | 13.0 | 0.00 | 0.00 | 0.00 | 19 | 1013.1 |
| 20260507000033 | 78 | 302 | 4.0 | 13.0 | 0.00 | 0.00 | 0.00 | 20 | 1012.9 |
| 20260506235033 | 78 | 319 | 3.0 | 9.0 | 0.00 | 0.00 | 0.00 | 20 | 1012.9 |
| 20260506234033 | 78 | 306 | 7.0 | 13.0 | 0.00 | 0.00 | 0.00 | 20 | 1013.1 |
| 20260506233033 | 78 | 285 | 8.0 | 15.0 | 0.00 | 0.00 | 0.00 | 20 | 1013.1 |
| 20260506232033 | 78 | 305 | 4.0 | 13.0 | 0.00 | 0.00 | 0.00 | 21 | 1013.1 |
| 20260506231050 | 78 | 304 | 6.0 | 12.0 | 0.00 | 0.00 | 0.00 | 21 | 1013.2 |
| 20260506230031 | 78 | 297 | 5.0 | 12.0 | 0.00 | 0.00 | 0.00 | 21 | 1013.2 |
| 20260506225033 | 77 | 312 | 2.0 | 7.0 | 0.00 | 0.00 | 0.00 | 21 | 1013.2 |
| 20260506224033 | 77 | 308 | 5.0 | 13.0 | 0.00 | 0.00 | 0.00 | 21 | 1013.2 |
| 20260506223033 | 77 | 306 | 4.0 | 13.0 | 0.00 | 0.00 | 0.00 | 21 | 1013.3 |
| 20260506222033 | 77 | 298 | 3.0 | 9.0 | 0.00 | 0.00 | 0.00 | 22 | 1013.3 |
| 20260506221033 | 77 | 282 | 7.0 | 18.0 | 0.00 | 0.00 | 0.00 | 22 | 1013.6 |
| 20260506220050 | 77 | 291 | 7.0 | 13.0 | 0.00 | 0.00 | 0.00 | 22 | 1013.6 |
| 20260506215031 | 77 | 85 | 4.0 | 13.0 | 0.00 | 0.00 | 0.00 | 22 | 1013.6 |
| 20260506214033 | 77 | 279 | 6.0 | 12.0 | 0.00 | 0.00 | 0.00 | 23 | 1013.7 |
| 20260506213050 | 76 | 292 | 7.0 | 19.0 | 0.00 | 0.00 | 0.00 | 23 | 1013.6 |
| 20260506212033 | 77 | 301 | 7.0 | 13.0 | 0.00 | 0.00 | 0.00 | 23 | 1013.6 |
| 20260506211033 | 77 | 293 | 4.0 | 10.0 | 0.00 | 0.00 | 0.00 | 23 | 1014.0 |
| 20260506210033 | 76 | 311 | 2.0 | 7.0 | 0.00 | 0.00 | 0.00 | 24 | 1014.3 |
| 20260506205107 | 76 | 302 | 1.0 | 7.0 | 0.00 | 0.00 | 0.00 | 25 | 1014.3 |
| 20260506204031 | 75 | 300 | 6.0 | 16.0 | 0.00 | 0.00 | 0.00 | 25 | 1014.3 |
| 20260506203033 | 75 | 300 | 5.0 | 15.0 | 0.00 | 0.00 | 0.00 | 25 | 1014.3 |
| 20260506202048 | 75 | 287 | 6.0 | 9.0 | 0.00 | 0.00 | 0.00 | 25 | 1014.3 |
| 20260506201050 | 74 | 65 | 4.0 | 9.0 | 0.00 | 0.00 | 0.00 | 26 | 1014.6 |
| 20260506200033 | 74 | 276 | 4.0 | 10.0 | 0.00 | 0.00 | 0.00 | 25 | 1014.9 |
| 20260506195033 | 74 | 70 | 1.0 | 6.0 | 0.00 | 0.00 | 0.00 | 24 | 1014.9 |
| 20260506194033 | 74 | 272 | 3.0 | 9.0 | 0.00 | 0.00 | 0.00 | 24 | 1015.0 |
| 20260506193031 | 74 | 68 | 2.0 | 6.0 | 0.00 | 0.00 | 0.00 | 24 | 1015.1 |
| 20260506192033 | 74 | 74 | 1.0 | 6.0 | 0.00 | 0.00 | 0.00 | 24 | 1015.1 |
| 20260506191050 | 73 | 35 | 1.0 | 7.0 | 0.00 | 0.00 | 0.00 | 24 | 1015.3 |
| 20260506190033 | 73 | 305 | 3.0 | 10.0 | 0.00 | 0.00 | 0.00 | 24 | 1015.5 |
| 20260506185033 | 73 | 349 | 0.0 | 4.0 | 0.00 | 0.00 | 0.00 | 24 | 1015.5 |
| 20260506184033 | 72 | 341 | 1.0 | 7.0 | 0.00 | 0.00 | 0.00 | 25 | 1015.8 |
| 20260506183048 | 72 | 65 | 2.0 | 7.0 | 0.00 | 0.00 | 0.00 | 25 | 1015.8 |
| 20260506182033 | 71 | 28 | 1.0 | 9.0 | 0.00 | 0.00 | 0.00 | 26 | 1015.8 |
| 20260506181050 | 71 | 9 | 0.0 | 3.0 | 0.00 | 0.00 | 0.00 | 27 | 1016.1 |
| 20260506180033 | 71 | 295 | 1.0 | 10.0 | 0.00 | 0.00 | 0.00 | 27 | 1016.1 |
| 20260506175033 | 70 | 62 | 1.0 | 6.0 | 0.00 | 0.00 | 0.00 | 28 | 1016.1 |
| 20260506174033 | 70 | 353 | 0.0 | 3.0 | 0.00 | 0.00 | 0.00 | 30 | 1016.2 |
| 20260506173033 | 69 | 283 | 1.0 | 10.0 | 0.00 | 0.00 | 0.00 | 34 | 1016.1 |
| 20260506172031 | 69 | 307 | 0.0 | 6.0 | 0.00 | 0.00 | 0.00 | 32 | 1016.1 |
| 20260506171033 | 68 | 301 | 0.0 | 4.0 | 0.00 | 0.00 | 0.00 | 33 | 1016.2 |
| 20260506170033 | 67 | 314 | 1.0 | 9.0 | 0.00 | 0.00 | 0.00 | 35 | 1016.3 |
| 20260506165033 | 67 | 272 | 2.0 | 7.0 | 0.00 | 0.00 | 0.00 | 35 | 1016.3 |
| 20260506164033 | 67 | 271 | 2.0 | 7.0 | 0.00 | 0.00 | 0.00 | 36 | 1016.2 |
| 20260506163033 | 66 | 274 | 2.0 | 9.0 | 0.00 | 0.00 | 0.00 | 37 | 1015.9 |
| 20260506162050 | 66 | 54 | 0.0 | 3.0 | 0.00 | 0.00 | 0.00 | 37 | 1015.9 |
| 20260506161048 | 65 | 42 | 0.0 | 1.0 | 0.00 | 0.00 | 0.00 | 38 | 1015.9 |
| 20260506160031 | 65 | 52 | 1.0 | 6.0 | 0.00 | 0.00 | 0.00 | 39 | 1015.9 |
| 20260506155107 | 64 | 52 | 1.0 | 6.0 | 0.00 | 0.00 | 0.00 | 40 | 1015.9 |
| 20260506154033 | 64 | 333 | 0.0 | 6.0 | 0.00 | 0.00 | 0.00 | 40 | 1016.1 |
| 20260506153050 | 64 | 352 | 0.0 | 4.0 | 0.00 | 0.00 | 0.00 | 41 | 1016.0 |
| 20260506152033 | 63 | 346 | 0.0 | 3.0 | 0.00 | 0.00 | 0.00 | 42 | 1016.0 |
| 20260506151050 | 63 | 87 | 0.0 | 3.0 | 0.00 | 0.00 | 0.00 | 42 | 1015.8 |
| 20260506150031 | 62 | 328 | 0.0 | 1.0 | 0.00 | 0.00 | 0.00 | 44 | 1015.8 |
| 20260506145033 | 61 | 0 | 0.0 | 0.0 | 0.00 | 0.00 | 0.00 | 46 | 1015.8 |
| 20260506144033 | 60 | 328 | 0.0 | 3.0 | 0.00 | 0.00 | 0.00 | 50 | 1016.0 |
| 20260506143050 | 59 | 0 | 0.0 | 0.0 | 0.00 | 0.00 | 0.00 | 51 | 1015.9 |
| 20260506142031 | 58 | 70 | 0.0 | 3.0 | 0.00 | 0.00 | 0.00 | 53 | 1015.9 |
| 20260506141050 | 57 | 0 | 0.0 | 0.0 | 0.00 | 0.00 | 0.00 | 57 | 1016.0 |
| 20260506140033 | 56 | 88 | 0.0 | 1.0 | 0.00 | 0.00 | 0.00 | 59 | 1016.1 |
| 20260506135033 | 54 | 82 | 0.0 | 1.0 | 0.00 | 0.00 | 0.00 | 61 | 1016.1 |
| 20260506134033 | 53 | 68 | 0.0 | 3.0 | 0.00 | 0.00 | 0.00 | 64 | 1016.5 |
| 20260506133033 | 51 | 43 | 0.0 | 1.0 | 0.00 | 0.00 | 0.00 | 68 | 1016.2 |
| 20260506132033 | 50 | 57 | 0.0 | 4.0 | 0.00 | 0.00 | 0.00 | 69 | 1016.2 |
| 20260506131033 | 50 | 279 | 1.0 | 6.0 | 0.00 | 0.00 | 0.00 | 71 | 1016.0 |
| 20260506130033 | 50 | 284 | 1.0 | 3.0 | 0.00 | 0.00 | 0.00 | 72 | 1015.8 |
| 20260506125033 | 50 | 285 | 1.0 | 3.0 | 0.00 | 0.00 | 0.00 | 72 | 1015.8 |
| 20260506124031 | 50 | 311 | 0.0 | 3.0 | 0.00 | 0.00 | 0.00 | 71 | 1015.7 |
| 20260506123033 | 51 | 78 | 0.0 | 3.0 | 0.00 | 0.00 | 0.00 | 71 | 1015.5 |
| 20260506122033 | 51 | 0 | 0.0 | 0.0 | 0.00 | 0.00 | 0.00 | 71 | 1015.5 |
| 20260506121033 | 51 | 63 | 0.0 | 3.0 | 0.00 | 0.00 | 0.00 | 70 | 1015.4 |
| 20260506120033 | 52 | 57 | 0.0 | 1.0 | 0.00 | 0.00 | 0.00 | 69 | 1015.0 |
| 20260506115050 | 52 | 0 | 0.0 | 0.0 | 0.00 | 0.00 | 0.00 | 68 | 1015.0 |
| 20260506114031 | 53 | 0 | 0.0 | 0.0 | 0.00 | 0.00 | 0.00 | 67 | 1014.8 |
| 20260506113048 | 53 | 0 | 0.0 | 0.0 | 0.00 | 0.00 | 0.00 | 67 | 1014.6 |
| 20260506112033 | 53 | 0 | 0.0 | 0.0 | 0.00 | 0.00 | 0.00 | 65 | 1014.6 |
| 20260506111033 | 53 | 0 | 0.0 | 0.0 | 0.00 | 0.00 | 0.00 | 63 | 1014.6 |
| 20260506110033 | 53 | 0 | 0.0 | 0.0 | 0.00 | 0.00 | 0.00 | 62 | 1014.6 |
| 20260506105033 | 53 | 0 | 0.0 | 0.0 | 0.00 | 0.00 | 0.00 | 60 | 1014.6 |
| 20260506104050 | 53 | 0 | 0.0 | 0.0 | 0.00 | 0.00 | 0.00 | 59 | 1014.4 |
| 20260506103031 | 54 | 0 | 0.0 | 0.0 | 0.00 | 0.00 | 0.00 | 59 | 1014.5 |
| 20260506102034 | 53 | 0 | 0.0 | 0.0 | 0.00 | 0.00 | 0.00 | 59 | 1014.5 |
| 20260506101033 | 53 | 32 | 0.0 | 1.0 | 0.00 | 0.00 | 0.00 | 60 | 1014.3 |
| 20260506100033 | 54 | 0 | 0.0 | 0.0 | 0.00 | 0.00 | 0.00 | 61 | 1014.1 |
| 20260506095033 | 54 | 38 | 0.0 | 1.0 | 0.00 | 0.00 | 0.00 | 59 | 1014.1 |
| 20260506094033 | 55 | 41 | 0.0 | 1.0 | 0.00 | 0.00 | 0.00 | 59 | 1014.0 |
| 20260506093033 | 55 | 0 | 0.0 | 0.0 | 0.00 | 0.00 | 0.00 | 59 | 1014.1 |
| 20260506092031 | 55 | 0 | 0.0 | 0.0 | 0.00 | 0.00 | 0.00 | 57 | 1014.1 |
| 20260506091033 | 56 | 0 | 0.0 | 0.0 | 0.00 | 0.00 | 0.00 | 56 | 1014.1 |
| 20260506090033 | 56 | 41 | 0.0 | 1.0 | 0.00 | 0.00 | 0.00 | 55 | 1014.1 |
| 20260506085050 | 56 | 0 | 0.0 | 0.0 | 0.00 | 0.00 | 0.00 | 54 | 1014.1 |
| 20260506084050 | 56 | 0 | 0.0 | 0.0 | 0.00 | 0.00 | 0.00 | 54 | 1014.2 |
| 20260506083033 | 57 | 0 | 0.0 | 0.0 | 0.00 | 0.00 | 0.00 | 54 | 1014.0 |
| 20260506082107 | 57 | 0 | 0.0 | 0.0 | 0.00 | 0.00 | 0.00 | 54 | 1014.0 |
| 20260506081031 | 57 | 0 | 0.0 | 0.0 | 0.00 | 0.00 | 0.00 | 54 | 1014.3 |
| 20260506073050 | 58 | 311 | 0.0 | 3.0 | 0.00 | 0.00 | 0.00 | 52 | 1014.4 |
| 20260506072033 | 58 | 0 | 0.0 | 0.0 | 0.00 | 0.00 | 0.00 | 51 | 1014.4 |
| 20260506071033 | 59 | 0 | 0.0 | 0.0 | 0.00 | 0.17 | 0.00 | 49 | 1014.2 |
| 20260506062033 | 60 | 305 | 1.0 | 3.0 | 0.00 | 0.17 | 0.00 | 45 | 1014.3 |
| 20260506061033 | 61 | 299 | 0.0 | 3.0 | 0.00 | 0.17 | 0.00 | 43 | 1014.1 |